Le nostre stazioni meteo in Italia

Pubblicità
Il mio iltempo24.it
Carterhouse, Gran Bretagna (99129): Temperatura & dewpoint: 14.04.2018 19:00:00 - 20.04.2018 19:00:00 (BST)Carterhouse, Gran Bretagna (99129): Temperatura -20cm & Temperatura -100cm: 14.04.2018 19:00:00 - 20.04.2018 19:00:00 (BST)Carterhouse, Gran Bretagna (99129): precipitazioni: 14.04.2018 19:00:00 - 20.04.2018 19:00:00 (BST)
Data & Tempo tt [°C] td [°C] tt -20cm [°C] tt -100cm [°C] rr [mm]
20.04.2018 19:00:00 11,2 7,4 - - 0,0
20.04.2018 18:00:00 12,1 7,2 - - 0,0
20.04.2018 17:00:00 13,7 8,3 - - 0,0
20.04.2018 16:00:00 14,0 7,3 - - 0,0
20.04.2018 15:00:00 14,9 8,2 - - 0,0
20.04.2018 14:00:00 14,0 7,2 - - 0,0
20.04.2018 13:00:00 13,0 6,8 - - 0,0
20.04.2018 12:00:00 12,2 7,2 - - 0,0
20.04.2018 11:00:00 11,6 8,0 - - 0,0
20.04.2018 10:00:00 10,7 7,6 8,5 6,2 0,0
20.04.2018 09:00:00 8,5 7,8 - - 0,0
20.04.2018 08:00:00 8,3 7,6 - - 0,0
20.04.2018 07:00:00 7,9 7,5 - - 0,0
20.04.2018 06:00:00 6,6 6,4 - - 0,0
20.04.2018 05:00:00 7,5 7,2 - - 0,0
20.04.2018 04:00:00 6,7 6,0 - - 0,0
20.04.2018 03:00:00 7,2 6,3 - - 0,0
20.04.2018 02:00:00 7,0 6,6 - - 0,0
20.04.2018 01:00:00 8,3 7,5 - - 0,0
20.04.2018 00:00:00 8,8 8,6 - - 0,0
19.04.2018 23:00:00 9,2 8,5 - - 0,0
19.04.2018 22:00:00 9,6 8,9 - - 0,0
19.04.2018 21:00:00 10,3 9,2 - - 0,0
19.04.2018 20:00:00 12,0 9,4 - - 0,0
19.04.2018 19:00:00 13,1 9,6 - - 0,0
19.04.2018 18:00:00 12,7 10,3 - - 0,0
19.04.2018 17:00:00 12,5 10,5 - - 0,0
19.04.2018 16:00:00 14,8 11,1 - - 0,0
19.04.2018 15:00:00 17,0 11,3 - - 0,0
19.04.2018 14:00:00 18,2 11,2 - - 0,0
19.04.2018 13:00:00 17,6 10,6 - - 0,0
19.04.2018 12:00:00 16,9 9,7 - - 0,0
19.04.2018 11:00:00 16,6 10,2 - - 0,0
19.04.2018 10:00:00 15,1 9,7 7,9 6,0 0,0
19.04.2018 09:00:00 14,5 8,7 - - 0,0
19.04.2018 08:00:00 - - - - 0,0
19.04.2018 07:00:00 - - - - -
19.04.2018 06:00:00 - - - - -
19.04.2018 05:00:00 - - - - -
19.04.2018 04:00:00 - - - - -
19.04.2018 03:00:00 - - - - -
19.04.2018 02:00:00 14,1 8,3 - - 0,0
19.04.2018 01:00:00 14,4 9,1 - - 0,0
19.04.2018 00:00:00 14,9 9,8 - - 0,0
18.04.2018 23:00:00 14,9 10,5 - - 0,0
18.04.2018 22:00:00 14,8 11,2 - - 0,0
18.04.2018 21:00:00 14,0 10,9 - - 0,0
18.04.2018 20:00:00 14,9 10,7 - - 0,0
18.04.2018 19:00:00 16,2 10,5 - - 0,0
18.04.2018 18:00:00 16,1 10,1 - - 0,0
18.04.2018 17:00:00 16,0 11,1 - - 0,0
18.04.2018 16:00:00 16,2 11,5 - - 0,0
18.04.2018 15:00:00 14,3 11,0 - - 0,0
18.04.2018 14:00:00 14,5 11,9 - - 0,0
18.04.2018 13:00:00 11,8 10,8 - - 0,0
18.04.2018 12:00:00 11,4 10,5 - - 0,0
18.04.2018 11:00:00 11,4 11,0 - - 0,6
18.04.2018 10:00:00 11,1 10,6 7,2 5,7 0,0
18.04.2018 09:00:00 11,3 10,5 - - 0,2
18.04.2018 08:00:00 10,9 9,8 - - 0,0
18.04.2018 07:00:00 10,3 9,1 - - 0,0
18.04.2018 06:00:00 9,6 8,3 - - 0,0
18.04.2018 05:00:00 8,9 7,5 - - 0,0
18.04.2018 04:00:00 9,1 7,7 - - 0,0
18.04.2018 03:00:00 8,7 7,5 - - 0,0
18.04.2018 02:00:00 9,0 7,4 - - 0,0
18.04.2018 01:00:00 8,7 7,5 - - 0,0
18.04.2018 00:00:00 9,2 7,8 - - 0,0
17.04.2018 23:00:00 9,4 7,7 - - 0,0
17.04.2018 22:00:00 9,5 7,5 - - 0,0
17.04.2018 21:00:00 10,1 7,6 - - 0,0
17.04.2018 20:00:00 10,4 7,9 - - 0,0
17.04.2018 19:00:00 10,8 7,9 - - 0,0
17.04.2018 18:00:00 11,5 7,8 - - 0,0
17.04.2018 17:00:00 11,5 7,8 - - 0,0
17.04.2018 16:00:00 11,1 8,5 - - 0,0
17.04.2018 15:00:00 10,5 8,6 - - 0,6
17.04.2018 14:00:00 10,2 9,1 - - 0,6
17.04.2018 13:00:00 10,4 9,1 - - 0,6
17.04.2018 12:00:00 10,5 8,8 - - 0,0
17.04.2018 11:00:00 9,9 8,9 - - 0,6
17.04.2018 10:00:00 9,8 8,3 7,0 5,7 0,0
17.04.2018 09:00:00 9,7 7,4 - - 0,0
17.04.2018 08:00:00 9,4 6,6 - - 0,0
17.04.2018 07:00:00 8,9 5,8 - - 0,0
17.04.2018 06:00:00 8,3 5,1 - - 0,0
17.04.2018 05:00:00 8,2 4,6 - - 0,0
17.04.2018 04:00:00 8,0 4,4 - - 0,0
17.04.2018 03:00:00 8,1 4,1 - - 0,0
17.04.2018 02:00:00 8,2 4,3 - - 0,0
17.04.2018 01:00:00 7,7 4,5 - - 0,0
17.04.2018 00:00:00 8,1 4,0 - - 0,0
16.04.2018 23:00:00 8,3 3,8 - - 0,0
16.04.2018 22:00:00 8,3 3,6 - - 0,0
16.04.2018 21:00:00 8,4 3,6 - - 0,0
16.04.2018 20:00:00 8,5 3,6 - - 0,0
16.04.2018 19:00:00 9,3 3,5 - - 0,0
16.04.2018 18:00:00 9,7 3,7 - - 0,0
16.04.2018 17:00:00 10,8 4,0 - - 0,0
16.04.2018 16:00:00 10,5 5,3 - - 0,0
16.04.2018 15:00:00 9,4 4,4 - - 0,0
16.04.2018 14:00:00 9,2 6,3 - - 0,0
16.04.2018 13:00:00 8,3 7,2 - - 0,0
16.04.2018 12:00:00 9,2 7,6 - - 0,0
16.04.2018 11:00:00 8,8 7,4 - - 0,2
16.04.2018 10:00:00 9,2 8,1 6,7 5,5 0,0
16.04.2018 09:00:00 8,4 7,5 - - 0,0
16.04.2018 08:00:00 7,6 7,0 - - 0,0
16.04.2018 07:00:00 7,0 6,6 - - 0,0
16.04.2018 06:00:00 7,3 6,7 - - 0,4
16.04.2018 05:00:00 7,6 7,1 - - 0,0
16.04.2018 04:00:00 7,7 6,9 - - 0,0
16.04.2018 03:00:00 7,5 7,0 - - 0,2
16.04.2018 02:00:00 7,1 7,1 - - 0,0
16.04.2018 01:00:00 6,5 6,4 - - 0,0
16.04.2018 00:00:00 6,5 6,3 - - 0,6
15.04.2018 23:00:00 6,3 6,2 - - 1,0
15.04.2018 22:00:00 6,2 6,1 - - 0,4
15.04.2018 21:00:00 6,7 6,5 - - 0,0
15.04.2018 20:00:00 7,2 6,9 - - 4,0
15.04.2018 19:00:00 8,4 7,3 - - 1,4
15.04.2018 18:00:00 11,4 7,5 - - 0,0
15.04.2018 17:00:00 11,6 7,8 - - 0,0
15.04.2018 16:00:00 12,5 8,4 - - 0,0
15.04.2018 15:00:00 11,5 7,4 - - 0,0
15.04.2018 14:00:00 11,5 7,7 - - 0,0
15.04.2018 13:00:00 10,8 8,0 - - 0,0
15.04.2018 12:00:00 11,4 7,8 - - 0,0
15.04.2018 11:00:00 10,9 7,6 - - 0,0
15.04.2018 10:00:00 9,7 6,8 6,2 5,2 0,0
15.04.2018 09:00:00 8,8 6,4 - - 0,0
15.04.2018 08:00:00 7,7 5,7 - - 0,0
15.04.2018 07:00:00 6,6 5,3 - - 0,0
15.04.2018 06:00:00 5,8 4,7 - - 0,0
15.04.2018 05:00:00 5,9 4,8 - - 0,0
15.04.2018 04:00:00 6,1 4,3 - - 0,0
15.04.2018 03:00:00 6,3 4,3 - - 0,0
15.04.2018 02:00:00 7,1 4,4 - - 0,0
15.04.2018 01:00:00 7,5 4,7 - - 0,0
15.04.2018 00:00:00 7,3 4,6 - - 0,0
14.04.2018 23:00:00 7,4 4,6 - - 0,0
14.04.2018 22:00:00 7,6 4,8 - - 0,0
14.04.2018 21:00:00 6,9 4,2 - - 0,0
14.04.2018 20:00:00 9,1 5,2 - - 0,0
14.04.2018 19:00:00 10,7 6,0 - - 0,0

tt = Temperatura
td = dewpoint
tt -20cm = Temperatura -20cm
tt -100cm = Temperatura -100cm
rr = precipitazioni

Stazioni seguenti

WeatherPro
AMSI
MeteoEarth